Regional Weather Roundup
Issued by NWS

Home | Current Version | Previous Version | Graphics & Text | Print | Product List | Glossary On
Versions: 1 2 3 4 5 6 7 8 9 10 11 12 13 14 15 16 17 18 19 20 21 22 23 24 25 26 27 28 29 30 31 32 33 34 35 36 37 38 39 40 41 42 43 44 45 46 47 48 49 50
000
ASUS45 KCYS 170210
RWRWY

WYOMING REGIONAL WEATHER ROUNDUP
NATIONAL WEATHER SERVICE CHEYENNE WY
800 PM MDT MON OCT 16 2017

NOTE:  "FAIR" INDICATES FEW OR NO CLOUDS BELOW 12,000 FEET
WITH NO SIGNIFICANT WEATHER AND/OR OBSTRUCTIONS TO VISIBILITY.

WYZ001-170300-
YELLOWSTONE NATIONAL PARK

CITY           SKY/WX    TMP DP  RH WIND       PRES   REMARKS
LK YELLOWSTONE   N/A     29  19  66 CALM      30.41R
W YELLOWSTONE  NOT AVBL

$$
WYZ002>013-054>058-071-098>099-170300-
NORTHERN WYOMING

CITY           SKY/WX    TMP DP  RH WIND       PRES   REMARKS
JACKSON        FAIR      42  22  44 S6        30.35R
CODY           FAIR      60  16  18 W6        30.21R
GREYBULL       FAIR      51  25  36 CALM      30.15R
WORLAND        FAIR      46  29  51 CALM      30.16R
SHERIDAN       FAIR      42  28  57 CALM      30.12S
BUFFALO        FAIR      50  21  32 SW9       30.19R
GILLETTE       FAIR      48  24  39 W8        30.14S
HULETT         FAIR      54  27  35 S9        30.14S
NEWCASTLE      FAIR      50  27  40 N7        30.15S

$$
WYZ014>020-022>026-101>103-170300-
CENTRAL WYOMING

CITY           SKY/WX    TMP DP  RH WIND       PRES   REMARKS
BIG PINEY      FAIR      37  16  42 N8        30.37R WCI  31
PINEDALE       FAIR      36  18  48 NW7       30.38R WCI  30
DUBOIS         FAIR      45  14  29 NW14      30.34R
LANDER         FAIR      51  23  33 W12       30.22R
RIVERTON       FAIR      51  26  37 W10       30.23R
CASPER         FAIR      48  16  27 SW9       30.22R
DOUGLAS        FAIR      49  17  28 CALM      30.20R

$$
WYZ021-027>030-104>119-170300-
SOUTHERN WYOMING

CITY           SKY/WX    TMP DP  RH WIND       PRES   REMARKS
EVANSTON       FAIR      48   2  15 W9        30.41R
KEMMERER       FAIR      46   9  21 W3        30.41R
FORT BRIDGER   FAIR      49   3  15 W9        30.43R
ROCK SPRINGS   FAIR      53   4  13 W10       30.35S
DIXON          FAIR      41  13  32 N3        30.38S
RAWLINS        FAIR      49   7  18 SW12      30.33S
SARATOGA       FAIR      43  12  28 SW10      30.37R
LARAMIE        FAIR      40  10  29 W10       30.34R WCI  33
CHEYENNE       FAIR      53  10  18 NW8       30.28R
TORRINGTON     FAIR      51  21  30 SE6       30.17R
PINE BLUFFS    FAIR      43  21  42 W5        30.24R

$$



USA.gov is the U.S. government's official web portal to all federal, state and local government web resources and services.